Location: Brantford
(43.1330°N, 80.2670°W)
Time: 06:54:05
(UTC-05:00)

Explorer 7 - Visible Passes

Search period start: 21 November 2019 00:00
Search period end: 01 December 2019 00:00
Orbit: 485 x 680 km, 50.3° (Epoch: 20 November)

Date Brightness Start Highest point End Pass type
(mag) Time Alt. Az. Time Alt. Az. Time Alt. Az.
21 Nov 9.6 04:11:58 16° E 04:11:58 16° E 04:12:51 10° E visible
21 Nov 7.2 05:48:18 34° W 05:49:32 46° SW 05:53:16 10° SE visible
22 Nov 9.5 04:17:04 17° ESE 04:17:04 17° ESE 04:18:01 10° ESE visible
22 Nov 7.8 05:53:25 26° WSW 05:54:21 29° SW 05:57:44 10° SSE visible
23 Nov 9.5 04:22:15 16° ESE 04:22:15 16° ESE 04:23:04 10° ESE visible
23 Nov 8.4 05:58:36 18° WSW 05:59:04 18° SW 06:01:47 10° S visible
24 Nov 9.6 04:27:30 13° SE 04:27:30 13° SE 04:27:57 10° SE visible
24 Nov 9.0 06:03:51 11° SW 06:03:51 11° SW 06:04:37 10° SW visible
29 Nov 9.1 18:45:44 10° S 18:47:56 17° SSE 18:47:56 17° SSE visible
30 Nov 8.4 18:49:39 10° SSW 18:53:11 28° SSE 18:53:11 28° SSE visible
30 Nov 10.2 20:29:19 10° WSW 20:29:31 11° WSW 20:29:31 11° WSW visible
